Location: Beadle
(51.4667°N, 109.0000°W)
Time: 05:32:35
(UTC+00:00)

Altair - Pass Details

Date: 05 June 2022
Orbit: 1501 x 1682 km, 47.2° (Epoch: 30 June)

Event Time Altitude Azimuth Distance (km) Brightness Sun altitude
Rises 18:31:17 0° 175° (S) 4,729 10.5 59.9°
Reaches altitude 10° 18:36:18 10° 153° (SSE) 3,789 10.2 60.2°
Maximum altitude 18:40:48 14° 124° (SE) 3,489 10.0 60.4°
Drops below altitude 10° 18:45:22 10° 96° (E) 3,866 9.9 60.6°
Sets 18:50:31 0° 75° (ENE) 4,891 10.1 60.8°
